UAL525 KSFO-KPSP

Flight info

Callsign UAL525
Flight time N/A
Altitude 33000
Route WESLA5 KAYEX LOSHN CLASN SIZLR3
Aircraft B739/M-SDE2E3FGHIRWXY/LB1

Departure

Time 2026-05-04 22:30
Airport San Francisco International Airport (KSFO)

Arrival

Time N/A
Airport Palm Springs International Airport (KPSP)
Time Latitude Longitude Altitude Speed Heading
2026-05-04 22:11 37.61675 -122.38051 15 ft 0 kts 297°
2026-05-04 22:21 37.61670 -122.38040 16 ft 3 kts 297°
2026-05-04 22:21 37.61661 -122.38019 16 ft 3 kts 329°
2026-05-04 22:21 37.61643 -122.38016 16 ft 2 kts 28°
2026-05-04 22:22 37.61641 -122.38018 16 ft 0 kts 28°
2026-05-04 22:25 37.61642 -122.38017 14 ft 0 kts 28°
2026-05-04 22:25 37.61664 -122.38002 15 ft 6 kts 28°
2026-05-04 22:25 37.61753 -122.37878 17 ft 15 kts 45°
2026-05-04 22:25 37.61790 -122.37762 17 ft 15 kts 92°
2026-05-04 22:26 37.61758 -122.37641 19 ft 14 kts 114°
2026-05-04 22:26 37.61716 -122.37518 21 ft 17 kts 111°
2026-05-04 22:26 37.61661 -122.37375 21 ft 20 kts 123°
2026-05-04 22:26 37.61588 -122.37208 22 ft 23 kts 112°
2026-05-04 22:27 37.61515 -122.37027 22 ft 23 kts 118°
2026-05-04 22:27 37.61421 -122.36865 19 ft 24 kts 130°
2026-05-04 22:27 37.61319 -122.36668 17 ft 29 kts 119°
2026-05-04 22:27 37.61219 -122.36430 16 ft 31 kts 116°
2026-05-04 22:28 37.61120 -122.36195 17 ft 24 kts 118°
2026-05-04 22:28 37.61122 -122.36100 18 ft 10 kts 47°
2026-05-04 22:28 37.61181 -122.36054 16 ft 11 kts 28°
2026-05-04 22:28 37.61250 -122.36041 15 ft 10 kts 320°
2026-05-04 22:29 37.61277 -122.36091 14 ft 0 kts 297°
2026-05-04 22:29 37.61282 -122.36103 15 ft 12 kts 297°
2026-05-04 22:29 37.61463 -122.36537 16 ft 98 kts 298°
2026-05-04 22:29 37.61891 -122.37573 31 ft 165 kts 297°
2026-05-04 22:30 37.62457 -122.38872 843 ft 166 kts 297°
2026-05-04 22:30 37.63018 -122.40202 1714 ft 173 kts 299°
2026-05-04 22:30 37.63598 -122.41586 2316 ft 191 kts 297°
2026-05-04 22:30 37.64261 -122.43151 2556 ft 214 kts 298°
2026-05-04 22:31 37.64981 -122.44850 2984 ft 228 kts 297°
2026-05-04 22:31 37.65764 -122.46675 3646 ft 247 kts 297°
2026-05-04 22:31 37.66600 -122.48612 4621 ft 251 kts 296°
2026-05-04 22:31 37.67165 -122.50734 5345 ft 264 kts 272°
2026-05-04 22:32 37.66761 -122.52986 6086 ft 269 kts 236°
2026-05-04 22:32 37.65384 -122.54546 6876 ft 272 kts 202°
2026-05-04 22:32 37.63525 -122.54968 7596 ft 276 kts 177°
2026-05-04 22:32 37.61615 -122.54586 8283 ft 282 kts 160°
2026-05-04 22:33 37.59791 -122.53632 9037 ft 286 kts 153°
2026-05-04 22:33 37.57986 -122.52544 9814 ft 290 kts 153°
2026-05-04 22:33 37.56130 -122.51443 10413 ft 301 kts 154°
2026-05-04 22:33 37.54142 -122.50307 10606 ft 325 kts 155°
2026-05-04 22:34 37.52000 -122.49115 10786 ft 348 kts 155°
2026-05-04 22:34 37.49750 -122.47831 11240 ft 359 kts 150°
2026-05-04 22:34 37.47853 -122.45866 11914 ft 359 kts 128°
2026-05-04 22:34 37.46273 -122.43421 12702 ft 361 kts 127°
2026-05-04 22:35 37.44697 -122.40936 13428 ft 366 kts 127°
2026-05-04 22:35 37.43103 -122.38419 14092 ft 371 kts 127°
2026-05-04 22:35 37.41484 -122.35870 14697 ft 374 kts 127°
2026-05-04 22:35 37.39835 -122.33289 15493 ft 373 kts 127°
2026-05-04 22:36 37.38221 -122.30772 16184 ft 375 kts 127°
2026-05-04 22:36 37.36573 -122.28209 16855 ft 378 kts 127°
2026-05-04 22:36 37.34914 -122.25634 17572 ft 380 kts 127°
2026-05-04 22:36 37.33241 -122.23043 18199 ft 383 kts 127°
2026-05-04 22:37 37.31556 -122.20437 18711 ft 386 kts 127°
2026-05-04 22:37 37.29853 -122.17796 19203 ft 390 kts 126°
2026-05-04 22:37 37.28136 -122.15139 19783 ft 393 kts 126°
2026-05-04 22:37 37.26403 -122.12471 20336 ft 396 kts 126°
2026-05-04 22:38 37.24661 -122.09788 20907 ft 398 kts 126°
2026-05-04 22:38 37.22905 -122.07087 21462 ft 400 kts 126°
2026-05-04 22:38 37.21142 -122.04379 22059 ft 402 kts 125°
2026-05-04 22:38 37.19369 -122.01656 22629 ft 404 kts 125°
2026-05-04 22:39 37.17582 -121.98913 23185 ft 406 kts 124°
2026-05-04 22:39 37.15790 -121.96163 23709 ft 408 kts 125°
2026-05-04 22:39 37.13980 -121.93386 24051 ft 413 kts 125°
2026-05-04 22:39 37.12176 -121.90620 24432 ft 416 kts 125°
2026-05-04 22:40 37.10311 -121.87766 24799 ft 421 kts 125°
2026-05-04 22:40 37.08474 -121.84957 25202 ft 423 kts 125°
2026-05-04 22:40 37.06600 -121.82104 25600 ft 424 kts 125°
2026-05-04 22:40 37.04721 -121.79241 25930 ft 427 kts 126°
2026-05-04 22:41 37.02830 -121.76357 26264 ft 431 kts 126°
2026-05-04 22:41 37.00921 -121.73438 26609 ft 435 kts 127°
2026-05-04 22:41 36.98993 -121.70495 26901 ft 439 kts 127°
2026-05-04 22:41 36.97044 -121.67529 27233 ft 443 kts 127°
2026-05-04 22:42 36.95084 -121.64549 27604 ft 445 kts 127°
2026-05-04 22:42 36.93109 -121.61550 27967 ft 448 kts 127°
2026-05-04 22:42 36.91121 -121.58535 28313 ft 450 kts 127°
2026-05-04 22:42 36.89124 -121.55509 28645 ft 453 kts 127°
2026-05-04 22:43 36.87115 -121.52466 28997 ft 455 kts 128°
2026-05-04 22:43 36.85089 -121.49398 29203 ft 461 kts 129°
2026-05-04 22:43 36.83037 -121.46296 29454 ft 465 kts 130°
2026-05-04 22:43 36.80977 -121.43187 29888 ft 465 kts 130°
2026-05-04 22:44 36.78914 -121.40075 30351 ft 463 kts 130°
2026-05-04 22:44 36.76863 -121.36984 30721 ft 463 kts 131°
2026-05-04 22:44 36.74807 -121.33887 31018 ft 464 kts 131°
2026-05-04 22:44 36.72748 -121.30787 31342 ft 465 kts 131°
2026-05-04 22:45 36.70679 -121.27676 31639 ft 466 kts 132°
2026-05-04 22:45 36.66564 -121.21498 32310 ft 466 kts 133°
2026-05-04 22:45 36.64490 -121.18390 32600 ft 467 kts 133°
2026-05-04 22:46 36.62415 -121.15282 32881 ft 467 kts 133°
2026-05-04 22:46 36.60338 -121.12172 33052 ft 469 kts 134°
2026-05-04 22:46 36.56163 -121.05932 33025 ft 468 kts 135°
2026-05-04 22:47 36.52005 -120.99727 33035 ft 466 kts 135°
2026-05-04 22:47 36.47852 -120.93537 33028 ft 466 kts 136°
2026-05-04 22:48 36.43717 -120.87338 33036 ft 466 kts 135°
2026-05-04 22:48 36.39617 -120.81182 33034 ft 466 kts 135°
2026-05-04 22:49 36.35480 -120.74982 33033 ft 467 kts 135°
2026-05-04 22:49 36.31363 -120.68829 33033 ft 467 kts 135°
2026-05-04 22:50 36.27232 -120.62666 33016 ft 468 kts 136°
2026-05-04 22:50 36.23042 -120.56427 33031 ft 468 kts 137°
2026-05-04 22:51 36.18904 -120.50289 33031 ft 468 kts 137°
2026-05-04 22:51 36.14741 -120.44088 33028 ft 468 kts 137°
2026-05-04 22:52 36.10560 -120.37904 33013 ft 468 kts 139°
2026-05-04 22:52 36.06392 -120.31749 33026 ft 467 kts 139°
2026-05-04 22:53 36.02219 -120.25591 33039 ft 467 kts 139°
2026-05-04 22:53 35.98031 -120.19440 33007 ft 468 kts 139°
2026-05-04 22:54 35.93853 -120.13282 33018 ft 467 kts 140°
2026-05-04 22:54 35.89684 -120.07153 33031 ft 465 kts 140°
2026-05-04 22:55 35.85543 -120.01023 33026 ft 469 kts 137°
2026-05-04 22:55 35.83753 -119.97585 33017 ft 483 kts 127°
2026-05-04 22:55 35.82305 -119.93830 33018 ft 487 kts 124°
2026-05-04 22:56 35.79545 -119.86197 33022 ft 487 kts 124°
2026-05-04 22:56 35.76752 -119.78597 33018 ft 486 kts 125°
2026-05-04 22:57 35.73926 -119.71094 33027 ft 487 kts 125°
2026-05-04 22:57 35.71061 -119.63538 33028 ft 488 kts 125°
2026-05-04 22:58 35.68189 -119.55963 33021 ft 489 kts 125°
2026-05-04 22:58 35.64964 -119.48733 33017 ft 472 kts 137°
2026-05-04 22:59 35.60654 -119.42817 33033 ft 462 kts 144°
2026-05-04 22:59 35.56259 -119.37028 33017 ft 464 kts 143°
2026-05-04 23:00 35.54069 -119.34112 32879 ft 467 kts 143°
2026-05-04 23:00 35.51891 -119.31195 32604 ft 468 kts 143°
2026-05-04 23:00 35.49700 -119.28246 32355 ft 466 kts 143°
2026-05-04 23:00 35.47519 -119.25307 32107 ft 465 kts 143°
2026-05-04 23:01 35.45331 -119.22365 31842 ft 467 kts 143°
2026-05-04 23:01 35.43129 -119.19411 31603 ft 469 kts 143°
2026-05-04 23:01 35.40926 -119.16458 31359 ft 469 kts 143°
2026-05-04 23:01 35.38732 -119.13515 31091 ft 465 kts 143°
2026-05-04 23:02 35.36543 -119.10585 30866 ft 466 kts 143°
2026-05-04 23:02 35.34357 -119.07662 30627 ft 464 kts 144°
2026-05-04 23:02 35.32183 -119.04774 30125 ft 458 kts 144°
2026-05-04 23:02 35.30008 -119.01913 29787 ft 457 kts 144°
2026-05-04 23:03 35.27862 -118.99059 29510 ft 454 kts 144°
2026-05-04 23:03 35.25723 -118.96210 29234 ft 452 kts 144°
2026-05-04 23:03 35.23624 -118.93419 28932 ft 451 kts 144°
2026-05-04 23:03 35.21503 -118.90604 28637 ft 449 kts 144°
2026-05-04 23:04 35.19388 -118.87803 28387 ft 447 kts 144°
2026-05-04 23:04 35.17282 -118.85019 28108 ft 444 kts 144°
2026-05-04 23:04 35.15185 -118.82253 27855 ft 443 kts 144°
2026-05-04 23:04 35.13094 -118.79499 27606 ft 442 kts 144°
2026-05-04 23:05 35.11013 -118.76761 27355 ft 441 kts 144°
2026-05-04 23:05 35.08918 -118.74003 27107 ft 441 kts 143°
2026-05-04 23:05 35.06829 -118.71255 26855 ft 440 kts 143°
2026-05-04 23:05 35.05424 -118.69405 26684 ft 440 kts 143°
2026-05-04 23:06 35.03343 -118.66668 26421 ft 440 kts 143°
2026-05-04 23:06 35.01264 -118.64015 26138 ft 430 kts 150°
2026-05-04 23:06 34.99061 -118.61580 26017 ft 431 kts 145°
2026-05-04 23:06 34.96971 -118.58922 25788 ft 437 kts 142°
2026-05-04 23:07 34.94968 -118.56116 25548 ft 438 kts 140°
2026-05-04 23:07 34.92992 -118.53300 25304 ft 437 kts 140°
2026-05-04 23:07 34.90985 -118.50523 25067 ft 436 kts 141°
2026-05-04 23:07 34.88949 -118.47802 24833 ft 434 kts 142°
2026-05-04 23:08 34.86894 -118.45106 24581 ft 433 kts 142°
2026-05-04 23:08 34.84833 -118.42424 24352 ft 433 kts 142°
2026-05-04 23:08 34.82779 -118.39756 24123 ft 431 kts 142°
2026-05-04 23:08 34.80741 -118.37101 24019 ft 427 kts 142°
2026-05-04 23:09 34.78712 -118.34461 23997 ft 427 kts 142°
2026-05-04 23:09 34.76047 -118.30680 23772 ft 436 kts 137°
2026-05-04 23:09 34.71537 -118.23592 23140 ft 435 kts 135°
2026-05-04 23:09 34.68794 -118.19272 22740 ft 428 kts 136°
2026-05-04 23:10 34.66976 -118.16436 22466 ft 421 kts 136°
2026-05-04 23:10 34.65174 -118.13646 22203 ft 418 kts 136°
2026-05-04 23:10 34.63376 -118.10875 21964 ft 417 kts 136°
2026-05-04 23:10 34.61581 -118.08110 21713 ft 416 kts 135°
2026-05-04 23:11 34.59789 -118.05351 21436 ft 415 kts 135°
2026-05-04 23:11 34.58037 -118.02574 21172 ft 417 kts 131°
2026-05-04 23:11 34.56584 -117.99497 20923 ft 422 kts 123°
2026-05-04 23:11 34.55294 -117.96296 20661 ft 421 kts 122°
2026-05-04 23:12 34.54032 -117.93106 20405 ft 419 kts 122°
2026-05-04 23:12 34.52769 -117.89933 20168 ft 417 kts 122°
2026-05-04 23:12 34.51500 -117.86785 19922 ft 414 kts 122°
2026-05-04 23:12 34.50227 -117.83660 19678 ft 411 kts 122°
2026-05-04 23:13 34.48974 -117.80604 19424 ft 409 kts 122°
2026-05-04 23:13 34.47711 -117.77530 19185 ft 406 kts 122°
2026-05-04 23:13 34.46454 -117.74473 18958 ft 404 kts 122°
2026-05-04 23:13 34.45205 -117.71438 18723 ft 401 kts 122°
2026-05-04 23:14 34.43966 -117.68425 18485 ft 399 kts 122°
2026-05-04 23:14 34.42843 -117.65678 18277 ft 397 kts 122°